Regional Weather Roundup
Issued by NWS

Home | Current Version | Previous Version | Graphics & Text | Print | Product List | Glossary On
Versions: 1 2 3 4 5 6 7 8 9 10 11 12 13 14 15 16 17 18 19 20 21 22 23 24 25 26 27 28 29 30 31 32 33 34 35 36 37 38 39 40 41 42 43 44 45 46 47 48 49 50
000
ASUS43 KLOT 291908
RWRIL

ILLINOIS REGIONAL WEATHER ROUNDUP
NATIONAL WEATHER SERVICE CHICAGO/ROMEOVILLE IL
200 PM CDT MON AUG 29 2016

NOTE: "FAIR" INDICATES FEW OR NO CLOUDS BELOW 12,000 FEET WITH NO
SIGNIFICANT WEATHER AND/OR OBSTRUCTIONS TO VISIBILITY.

* THESE STATIONS ARE NOT UNDER NWS QUALITY CONTROL. THEY ALSO MAY NOT
  REPORT WEATHER SUCH AS PRECIPITATION OR FOG.

ILZ001-002-007-009-015-016-024-292000-
NORTHWEST ILLINOIS

CITY           SKY/WX    TMP DP  RH WIND       PRES   REMARKS
MOLINE         MOSUNNY   82  74  76 E8        30.19F HX  88
STERLING*      LGT RAIN  83  76  79 NE5       30.20F HX  91
SAVANNA*       MOSUNNY   86  74  69 E5        30.19F HX  94
$$

ILZ003-004-008-010-011-017-018-292000-
NORTH CENTRAL ILLINOIS

CITY           SKY/WX    TMP DP  RH WIND       PRES   REMARKS
ROCKFORD       CLOUDY    84  71  65 CALM      30.23F HX  89
FREEPORT*      MOSUNNY   82  72  71 E6        30.24F HX  87
ROCHELLE*      MOSUNNY   83  73  71 CALM      30.22F HX  89
DE KALB*       PTSUNNY   85  73  68 S5        30.23F HX  92
$$

ILZ005-006-012>014-019>023-292000-
NORTHEAST ILLINOIS

CITY           SKY/WX    TMP DP  RH WIND       PRES   REMARKS
CHICAGO-OHARE  PTSUNNY   86  70  58 NE7       30.21F HX  90
CHICAGO-MIDWAY PTSUNNY   89  68  49 SW7       30.21F HX  93
AURORA         PTSUNNY   87  73  62 SE9       30.22F HX  94
LANSING*       SUNNY     86  72  64 S5        30.23F HX  92
JOLIET*        SUNNY     87  73  61 E5        30.22F HX  95
WAUKEGAN       CLOUDY    79  73  82 NE5       30.24F HX  82
DUPAGE AIRPORT MOSUNNY   86  71  60 S5        30.22F HX  91
KANKAKEE*      SUNNY     86  72  62 E5        30.22F HX  91
WHEELING       MOSUNNY   82  71  69 E8        30.24F THUNDER HX  86
MORRIS*        SUNNY     86  73  65 CALM      30.21F HX  92
ROMEOVILLE*    SUNNY     86  74  67 S3        30.22F HX  94
$$

LMZ740>746-292000-
SOUTHERN LAKE MICHIGAN

STATION/POSITION SKY/WX   TEMP    WIND        PRES    VSBY  WAVE
                          AIR SEA DIR/SP/G                  HT/PER
                          (F)     (DEG/KT/KT) (MB)    (MI)  (FT/S)
SOUTHERN BUOY              77 78     CALM     1024.0F         1
WILMETTE HARBOR            75 74   50/  6/  8   N/A           1
HARRISON CRIB              76      30/  7/  7   N/A
BURNHAM HARBOR             79      40/  4/  8   N/A
CALUMET HARBOR             80      30/  7/  8 1023.5F
BURNS HARBOR               81      CALM  /  4 1024.0F
MICHIGAN CITY              81     340/  8/  8   N/A
MICHIGAN CITY 6N           79 78   10/  6/  6   N/A           1
ST. JOSEPH                 78 77  350/  8/ 10 1023.4F         0
$$

ILZ025>027-034>036-040-047-049-050-058-095>099-292000-
WEST-CENTRAL ILLINOIS

CITY           SKY/WX    TMP DP  RH WIND       PRES   REMARKS
QUINCY         PTSUNNY   83  71  67 NE15      30.18F HX  87
GALESBURG*     PTSUNNY   87  74  65 S3        30.18F HX  94
MACOMB*        CLOUDY    83  76  80 SE3       30.21F HX  91
JACKSONVILLE*  SUNNY     89  75  64 E7        30.19F HX  99
PITTSFIELD*    MOSUNNY   88  73  61 CALM      30.19F HX  96
$$

ILZ028>032-037-038-041>044-048-051>054-059>061-292000-
CENTRAL ILLINOIS

CITY           SKY/WX    TMP DP  RH WIND       PRES   REMARKS
PONTIAC        MOSUNNY   87  78  75 SE5       30.22F HX 100
BLOOMINGTON    PTSUNNY   84  74  71 SE7       30.23F HX  91
DECATUR        SUNNY     88  74  63 E5        30.21F HX  96
PEORIA         PTSUNNY   88  73  61 E6        30.19F HX  95
LACON*         PTSUNNY   84  74  71 SE5       30.19F HX  91
LINCOLN*       MOSUNNY   89  76  64 SE7       30.20F HX 100
SPRINGFIELD    MOSUNNY   88  74  63 E6        30.19F HX  96
TAYLORVILLE    SUNNY     88  74  64 SE6       30.20F HX  96
$$

ILZ033-039-045-046-055>057-062-063-292000-
EAST-CENTRAL ILLINOIS

CITY           SKY/WX    TMP DP  RH WIND       PRES   REMARKS
CHAMPAIGN      MOSUNNY   87  73  62 SE5       30.22F HX  94
RANTOUL*       SUNNY     87  74  64 S3        30.22F HX  95
MATTOON        SUNNY     86  69  56 E5        30.20F HX  90
PARIS*         MOSUNNY   87  74  66 CALM      30.22F HX  95
$$

ILZ079-100>102-292000-
SOUTHWEST ILLINOIS

CITY           SKY/WX    TMP DP  RH WIND       PRES   REMARKS
ALTON          MOSUNNY   90  73  58 NE6       30.18  HX  98
BELLEVILLE     MOSUNNY   88  75  64 NE6       30.16F HX  98
CAHOKIA*       MOSUNNY   91  72  53 E7        30.16F HX  98
SPARTA*        MOSUNNY   87  76  69 CALM      30.18F HX  97
$$

ILZ064>066-069>071-074>076-080>082-084>086-088>090-092>094-292000-
SOUTH-CENTRAL ILLINOIS

CITY           SKY/WX    TMP DP  RH WIND       PRES   REMARKS
CARBONDALE     SUNNY     89  72  56 NE8       30.17F HX  96
CAIRO*         SUNNY     89  75  64 N8        30.14F HX  99
EFFINGHAM*     SUNNY     88  75  65 NE5       30.21F HX  98
MT. VERNON     SUNNY     90  72  55 E5        30.19F HX  96
CENTRALIA*     SUNNY     89  76  67 NE5       30.18F HX 100
SALEM*         SUNNY     89  75  62 E3        30.19F HX  99
METROPOLIS*    SUNNY     91  75  58 E8        30.15F HX 102
$$

ILZ067-068-072-073-078-083-087-091-292000-
SOUTHEAST ILLINOIS

CITY           SKY/WX    TMP DP  RH WIND       PRES   REMARKS
LAWRENCEVILLE    N/A    N/A N/A N/A MISG      30.20F
FLORA*         SUNNY     89  74  62 SE3       30.19F HX  97
FAIRFIELD*     SUNNY     88  71  56 SE3       30.17F HX  94
HARRISBURG*    SUNNY     90  73  56 E6        30.17F HX  98
ROBINSON*      MOSUNNY   87  73  64 CALM      30.20F HX  94
CARMI*         SUNNY     89  73  59 NE5       30.17F HX  97
$$

ABBREVIATIONS USED IN REMARKS
   TC - TEMPERATURE IN CELSIUS
  WCI - WIND CHILL INDEX
   HX - HEAT INDEX
  VSB - VISIBILITY
$$





USA.gov is the U.S. government's official web portal to all federal, state and local government web resources and services.